TimeEST,TemperatureF,Dew PointF,Humidity,Sea Level PressureIn,VisibilityMPH,Wind Direction,Wind SpeedMPH,Gust SpeedMPH,PrecipitationIn,Events,Conditions,WindDirDegrees,DateUTC
12:52 AM,25.0,8.1,49,29.95,10.0,WNW,16.1,26.5,N/A,,Clear,300,2013-01-21 05:52:00
1:52 AM,24.1,5.0,44,29.98,10.0,WNW,8.1,25.3,N/A,,Clear,300,2013-01-21 06:52:00
2:52 AM,21.9,6.1,51,30.01,10.0,West,4.6,-,N/A,,Clear,260,2013-01-21 07:52:00
3:52 AM,21.9,3.9,46,30.02,10.0,West,6.9,-,N/A,,Clear,270,2013-01-21 08:52:00
4:52 AM,19.9,3.9,50,30.03,10.0,WNW,5.8,-,N/A,,Clear,300,2013-01-21 09:52:00
5:52 AM,19.9,3.0,48,30.04,10.0,WSW,4.6,-,N/A,,Clear,240,2013-01-21 10:52:00
6:52 AM,19.9,3.0,48,30.06,10.0,West,4.6,-,N/A,,Clear,270,2013-01-21 11:52:00
7:52 AM,19.9,1.9,46,30.07,10.0,Calm,Calm,-,N/A,,Clear,0,2013-01-21 12:52:00
8:52 AM,21.9,3.0,44,30.08,10.0,West,4.6,-,N/A,,Overcast,270,2013-01-21 13:52:00
9:52 AM,23.0,3.9,44,30.09,10.0,Variable,3.5,-,N/A,,Mostly Cloudy,0,2013-01-21 14:52:00
10:52 AM,25.0,3.9,41,30.06,10.0,NW,8.1,-,N/A,,Overcast,320,2013-01-21 15:52:00
11:52 AM,25.0,3.0,39,30.03,10.0,West,4.6,-,N/A,,Overcast,270,2013-01-21 16:52:00
12:52 PM,26.1,3.9,39,30.00,10.0,SW,6.9,-,N/A,,Overcast,230,2013-01-21 17:52:00
1:52 PM,26.1,5.0,41,29.98,10.0,WSW,8.1,-,N/A,,Overcast,250,2013-01-21 18:52:00
2:52 PM,26.1,6.1,43,29.97,10.0,SSW,5.8,-,N/A,,Overcast,200,2013-01-21 19:52:00
3:52 PM,27.0,7.0,43,29.95,10.0,SSW,5.8,-,N/A,,Overcast,200,2013-01-21 20:52:00
4:52 PM,25.0,10.0,53,29.94,10.0,WSW,4.6,-,N/A,,Overcast,240,2013-01-21 21:52:00
5:35 PM,23.0,15.8,74,29.92,2.5,South,4.6,-,0.00,Snow,Light Snow,190,2013-01-21 22:35:00
5:52 PM,23.0,17.1,78,29.94,2.5,South,3.5,-,0.00,Snow,Light Snow,170,2013-01-21 22:52:00
6:11 PM,23.0,17.6,80,29.92,1.8,South,3.5,-,0.00,Snow,Light Snow,170,2013-01-21 23:11:00
6:52 PM,23.0,19.0,85,29.94,1.8,Calm,Calm,-,0.01,Snow,Light Snow,0,2013-01-21 23:52:00
7:41 PM,21.2,17.6,86,29.90,2.5,East,3.5,-,0.01,Snow,Light Snow,90,2013-01-22 00:41:00
7:43 PM,21.2,17.6,86,29.90,3.0,Calm,Calm,-,0.01,Snow,Light Snow,0,2013-01-22 00:43:00
8:52 PM,21.9,18.0,85,29.91,6.0,Calm,Calm,-,0.00,Snow,Light Snow,0,2013-01-22 01:52:00
8:59 PM,21.2,17.6,86,29.89,8.0,Calm,Calm,-,0.00,,Overcast,0,2013-01-22 01:59:00
9:52 PM,21.9,18.0,85,29.88,8.0,Calm,Calm,-,0.00,,Overcast,0,2013-01-22 02:52:00
10:26 PM,21.2,17.6,86,29.84,2.5,Calm,Calm,-,0.00,Snow,Light Snow,0,2013-01-22 03:26:00
10:34 PM,21.2,17.6,86,29.82,7.0,Calm,Calm,-,0.00,,Mostly Cloudy,0,2013-01-22 03:34:00
10:44 PM,21.2,17.6,86,29.83,10.0,Calm,Calm,-,0.00,,Mostly Cloudy,0,2013-01-22 03:44:00
11:52 PM,21.0,18.0,88,29.81,10.0,Calm,Calm,-,N/A,,Overcast,0,2013-01-22 04:52:00